When you browse on this site, cookies collect data to enhance your experience and personalize the content and advertising you see.
Visit our Privacy Policy to learn more. By continuing to use the site, you agree to this use of cookies and data.
  • In Österreich
  • Länderverzeichnis
  • Für 7 Tage
  • Wassertemperatur
  • Wetterkarte
  • News
  • Widgets
  • user-avatar
    Anmelden

    Stündliche Wetter Mineral del Monte

    Heute, 19 Januar, Sonntag

    Zeit Temperatur Niederschläge Wind Luftdruck Luftfeuchtigkeit
    00:00 +8°C° 0.1 mm 2 m/S 546 mmHg 92%
    01:00 +8°C° 0.1 mm 2 m/S 546 mmHg 92%
    02:00 +8°C° 0.1 mm 2 m/S 546 mmHg 92%
    03:00 +8°C° 0.1 mm 2 m/S 546 mmHg 92%
    04:00 +8°C° 0.1 mm 2 m/S 546 mmHg 92%
    05:00 +8°C° 0.1 mm 2 m/S 546 mmHg 92%
    06:00 +8°C° 0.1 mm 2 m/S 547 mmHg 91%
    07:00 +8°C° 0.1 mm 2 m/S 547 mmHg 90%
    08:00 +8°C° 0.1 mm 2 m/S 548 mmHg 89%
    09:00 +9°C° 0.3 mm 2 m/S 548 mmHg 84%
    10:00 +10°C° 0.3 mm 3 m/S 549 mmHg 79%
    11:00 +11°C° 0.3 mm 3 m/S 549 mmHg 74%
    12:00 +10°C° 0.6 mm 3 m/S 548 mmHg 78%
    13:00 +9°C° 0.6 mm 3 m/S 547 mmHg 81%
    14:00 +7°C° 0.6 mm 4 m/S 546 mmHg 85%
    15:00 +8°C° 0.1 mm 3 m/S 546 mmHg 86%
    16:00 +7°C° 0.1 mm 3 m/S 546 mmHg 87%
    17:00 +7°C° 0.1 mm 3 m/S 546 mmHg 88%
    18:00 +5°C° 0.2 mm 3 m/S 547 mmHg 89%
    19:00 +6°C° 0.2 mm 2 m/S 547 mmHg 91%
    20:00 +6°C° 0.2 mm 2 m/S 547 mmHg 92%
    21:00 +6°C° 0.5 mm 2 m/S 547 mmHg 92%
    22:00 +6°C° 0.5 mm 2 m/S 547 mmHg 92%
    23:00 +6°C° 0.5 mm 2 m/S 548 mmHg 93%

    Morgen, 20 Januar, Montag

    Zeit Temperatur Niederschläge Wind Luftdruck Luftfeuchtigkeit
    00:00 +6°C° 0.1 mm 2 m/S 547 mmHg 93%
    01:00 +6°C° 0.1 mm 2 m/S 547 mmHg 92%
    02:00 +6°C° 0.1 mm 2 m/S 547 mmHg 92%
    03:00 +5°C° 0.5 mm 2 m/S 547 mmHg 93%
    04:00 +5°C° 0.5 mm 2 m/S 547 mmHg 93%
    05:00 +5°C° 0.5 mm 2 m/S 547 mmHg 93%
    06:00 +6°C° 0.6 mm 2 m/S 548 mmHg 93%
    07:00 +6°C° 0.6 mm 2 m/S 548 mmHg 92%
    08:00 +6°C° 0.6 mm 2 m/S 549 mmHg 91%
    09:00 +6°C° 0.2 mm 2 m/S 549 mmHg 89%
    10:00 +6°C° 0.2 mm 2 m/S 549 mmHg 86%
    11:00 +7°C° 0.2 mm 3 m/S 549 mmHg 84%
    12:00 +7°C° 0.1 mm 3 m/S 549 mmHg 82%
    13:00 +7°C° 0.1 mm 3 m/S 548 mmHg 80%
    14:00 +6°C° 0.1 mm 4 m/S 548 mmHg 78%
    15:00 +7°C° 0 mm 3 m/S 548 mmHg 80%
    16:00 +5°C° 0 mm 3 m/S 547 mmHg 83%
    17:00 +5°C° 0 mm 3 m/S 547 mmHg 85%
    18:00 +4°C° 0 mm 3 m/S 547 mmHg 86%
    19:00 +4°C° 0 mm 3 m/S 547 mmHg 87%
    20:00 +4°C° 0 mm 3 m/S 547 mmHg 87%
    21:00 +5°C° 0 mm 2 m/S 547 mmHg 88%
    22:00 +4°C° 0 mm 2 m/S 547 mmHg 90%
    23:00 +4°C° 0 mm 2 m/S 547 mmHg 91%

    übermorgen, 21 Januar, Dienstag

    Zeit Temperatur Niederschläge Wind Luftdruck Luftfeuchtigkeit
    00:00 +4°C° 0 mm 2 m/S 547 mmHg 90%
    01:00 +4°C° 0 mm 2 m/S 547 mmHg 88%
    02:00 +5°C° 0 mm 1 m/S 546 mmHg 87%
    03:00 +5°C° 0 mm 1 m/S 546 mmHg 88%
    04:00 +5°C° 0 mm 1 m/S 546 mmHg 90%
    05:00 +4°C° 0 mm 1 m/S 545 mmHg 91%
    06:00 +5°C° 0 mm 1 m/S 546 mmHg 87%
    07:00 +6°C° 0 mm 1 m/S 547 mmHg 82%
    08:00 +7°C° 0 mm 1 m/S 547 mmHg 77%
    09:00 +9°C° 0 mm 1 m/S 548 mmHg 70%
    10:00 +10°C° 0 mm 1 m/S 549 mmHg 63%
    11:00 +12°C° 0 mm 1 m/S 549 mmHg 56%
    12:00 +13°C° 0 mm 2 m/S 549 mmHg 55%
    13:00 +13°C° 0 mm 2 m/S 549 mmHg 55%
    14:00 +12°C° 0 mm 3 m/S 548 mmHg 54%
    15:00 +11°C° 0 mm 3 m/S 547 mmHg 62%
    16:00 +9°C° 0 mm 3 m/S 546 mmHg 71%
    17:00 +8°C° 0 mm 3 m/S 545 mmHg 79%
    18:00 +7°C° 0 mm 2 m/S 545 mmHg 81%
    19:00 +7°C° 0 mm 2 m/S 545 mmHg 84%
    20:00 +7°C° 0 mm 1 m/S 545 mmHg 86%
    21:00 +7°C° 0 mm 1 m/S 545 mmHg 83%
    22:00 +8°C° 0 mm 1 m/S 545 mmHg 80%
    23:00 +8°C° 0 mm 1 m/S 545 mmHg 78%

    22 Januar, Mittwoch

    Zeit Temperatur Niederschläge Wind Luftdruck Luftfeuchtigkeit
    00:00 +8°C° 0 mm 1 m/S 545 mmHg 78%
    01:00 +7°C° 0 mm 1 m/S 544 mmHg 79%
    02:00 +7°C° 0 mm 1 m/S 544 mmHg 80%
    03:00 +7°C° 0 mm 1 m/S 543 mmHg 80%
    04:00 +6°C° 0 mm 2 m/S 543 mmHg 81%
    05:00 +6°C° 0 mm 2 m/S 543 mmHg 81%
    06:00 +7°C° 0 mm 2 m/S 544 mmHg 75%
    07:00 +8°C° 0 mm 2 m/S 545 mmHg 68%
    08:00 +10°C° 0 mm 2 m/S 546 mmHg 62%
    09:00 +13°C° 0 mm 2 m/S 546 mmHg 54%
    10:00 +13°C° 0 mm 3 m/S 547 mmHg 47%
    11:00 +16°C° 0 mm 3 m/S 548 mmHg 39%
    12:00 +17°C° 0 mm 3 m/S 547 mmHg 36%
    13:00 +18°C° 0 mm 3 m/S 547 mmHg 34%
    14:00 +18°C° 0 mm 3 m/S 547 mmHg 31%
    15:00 +17°C° 0 mm 3 m/S 546 mmHg 39%
    16:00 +16°C° 0 mm 2 m/S 545 mmHg 48%
    17:00 +14°C° 0 mm 2 m/S 545 mmHg 56%
    18:00 +14°C° 0.1 mm 2 m/S 545 mmHg 59%
    19:00 +13°C° 0.1 mm 1 m/S 545 mmHg 61%
    20:00 +12°C° 0.1 mm 1 m/S 545 mmHg 64%
    21:00 +11°C° 0 mm 1 m/S 545 mmHg 66%
    22:00 +11°C° 0 mm 1 m/S 544 mmHg 68%
    23:00 +10°C° 0 mm 1 m/S 544 mmHg 69%

    23 Januar, Donnerstag

    Zeit Temperatur Niederschläge Wind Luftdruck Luftfeuchtigkeit
    00:00 +10°C° 0 mm 1 m/S 544 mmHg 70%
    01:00 +9°C° 0 mm 1 m/S 543 mmHg 71%
    02:00 +9°C° 0 mm 1 m/S 542 mmHg 71%
    03:00 +9°C° 0 mm 1 m/S 542 mmHg 72%
    04:00 +8°C° 0 mm 1 m/S 542 mmHg 72%
    05:00 +8°C° 0 mm 1 m/S 542 mmHg 73%
    06:00 +9°C° 0 mm 1 m/S 543 mmHg 67%
    07:00 +10°C° 0 mm 1 m/S 544 mmHg 62%
    08:00 +11°C° 0 mm 1 m/S 545 mmHg 57%
    09:00 +12°C° 0 mm 2 m/S 545 mmHg 50%
    10:00 +14°C° 0 mm 2 m/S 546 mmHg 44%
    11:00 +14°C° 0 mm 3 m/S 547 mmHg 37%
    12:00 +14°C° 0 mm 3 m/S 546 mmHg 40%
    13:00 +13°C° 0 mm 3 m/S 545 mmHg 44%
    14:00 +13°C° 0 mm 4 m/S 544 mmHg 47%
    15:00 +12°C° 0.1 mm 4 m/S 544 mmHg 55%
    16:00 +10°C° 0.1 mm 4 m/S 543 mmHg 63%
    17:00 +8°C° 0.1 mm 4 m/S 543 mmHg 72%
    18:00 +8°C° 0 mm 3 m/S 542 mmHg 74%
    19:00 +8°C° 0 mm 2 m/S 542 mmHg 76%
    20:00 +8°C° 0 mm 1 m/S 542 mmHg 78%
    21:00 +8°C° 0 mm 1 m/S 542 mmHg 77%
    22:00 +8°C° 0 mm 1 m/S 542 mmHg 75%
    23:00 +8°C° 0 mm 1 m/S 542 mmHg 74%

    24 Januar, Freitag

    Zeit Temperatur Niederschläge Wind Luftdruck Luftfeuchtigkeit
    00:00 +8°C° 0 mm 1 m/S 542 mmHg 74%
    01:00 +7°C° 0 mm 1 m/S 541 mmHg 74%
    02:00 +7°C° 0 mm 1 m/S 541 mmHg 75%
    03:00 +7°C° 0 mm 1 m/S 541 mmHg 75%
    04:00 +6°C° 0 mm 1 m/S 541 mmHg 75%
    05:00 +6°C° 0 mm 1 m/S 540 mmHg 76%
    06:00 +7°C° 0 mm 1 m/S 542 mmHg 70%
    07:00 +9°C° 0 mm 1 m/S 543 mmHg 64%
    08:00 +10°C° 0 mm 1 m/S 544 mmHg 58%
    09:00 +12°C° 0 mm 1 m/S 545 mmHg 50%
    10:00 +14°C° 0 mm 1 m/S 546 mmHg 42%
    11:00 +14°C° 0 mm 0 m/S 547 mmHg 34%
    12:00 +16°C° 0 mm 1 m/S 546 mmHg 32%
    13:00 +16°C° 0 mm 1 m/S 546 mmHg 30%
    14:00 +17°C° 0 mm 2 m/S 546 mmHg 29%
    15:00 +15°C° 0.1 mm 2 m/S 545 mmHg 41%
    16:00 +13°C° 0.1 mm 2 m/S 545 mmHg 53%
    17:00 +11°C° 0.1 mm 3 m/S 544 mmHg 65%
    18:00 +10°C° 0.1 mm 3 m/S 544 mmHg 72%
    19:00 +9°C° 0.1 mm 3 m/S 544 mmHg 79%
    20:00 +7°C° 0.1 mm 3 m/S 544 mmHg 86%
    21:00 +7°C° 0 mm 3 m/S 544 mmHg 87%
    22:00 +7°C° 0 mm 2 m/S 544 mmHg 87%
    23:00 +7°C° 0 mm 2 m/S 544 mmHg 87%
    Mehr zeigen